Regional Weather Roundup
Issued by NWS

Home | Current Version | Previous Version | Text Only | Print | Product List | Glossary Off
Versions: 1 2 3 4 5 6 7 8 9 10 11 12 13 14 15 16 17 18 19 20 21 22 23 24 25 26 27 28 29 30 31 32 33 34 35 36 37 38 39 40 41 42 43 44 45 46 47 48 49 50

000
ASUS43 KDMX 050907
RWRIA

WEATHER ROUNDUP FOR IOWA
NATIONAL WEATHER SERVICE DES MOINES IA
400 AM CDT TUE MAY 05 2015

NOTE: "FAIR" INDICATES FEW OR NO CLOUDS BELOW 12,000 FEET WITH NO
SIGNIFICANT WEATHER AND/OR OBSTRUCTIONS TO VISIBILITY.

* - THESE STATIONS ARE NOT NWS STATIONS...THUS NOT UNDER NWS
QUALITY CONTROL.  THEY ALSO DO NOT REPORT WEATHER SUCH
AS PRECIPITATION OR FOG.

IAZ001>003-012>014-020>022-031>034-043>046-051000-
   NORTHWEST IOWA

CITY           SKY/WX    TMP DP  RH WIND       PRES   REMARKS
CARROLL *      LGT RAIN  55  55 100 NE5       30.07S
CHEROKEE *     CLOUDY    57  41  54 NE6       30.10S
DENISON *      CLOUDY    55  55 100 NE7       30.05F FOG
LE MARS *      CLOUDY    55  41  58 NE7       30.10F
ORANGE CITY *  CLOUDY    54  37  54 E8        30.11S
SHELDON *      CLOUDY    54  37  54 NE9       30.10F
SIOUX CITY     CLOUDY    57  50  77 CALM      30.09S
SPENCER        CLOUDY    55  40  56 NE8       30.12S
STORM LAKE *   CLOUDY    54  46  76 E9        30.11R
$$

IAZ055>058-069>071-079>083-090>094-051000-
   SOUTHWEST IOWA

CITY           SKY/WX    TMP DP  RH WIND       PRES   REMARKS
ATLANTIC *     CLOUDY    59  59 100 CALM      30.06R FOG
AUDUBON *      PTCLDY    57  54  88 N3        30.07F FOG
CLARINDA *     CLOUDY    61  61 100 SE7       30.07R
COUNCIL BLFS * CLOUDY    59  59 100 N5        30.05S FOG
CRESTON *      CLOUDY    59  59 100 SE5       30.08R
HARLAN  *      CLOUDY    57  57 100 N7        30.09R FOG
LAMONI         FOG       62  60  93 SE6       30.10R VSB 1
RED OAK *      CLOUDY    59  59 100 N5        30.05R
SHENANDOAH *   MOCLDY    61  61 100 W5        30.04R
$$

IAZ047>049-059>061-072>074-084-051000-
   CENTRAL IOWA

CITY           SKY/WX    TMP DP  RH WIND       PRES   REMARKS
AMES           CLOUDY    60  59  96 N3        30.07R FOG
ANKENY *       CLOUDY    61  61 100 CALM      30.08R
CHARITON *     CLOUDY    59  59 100 S8        30.09R
DES MOINES     CLOUDY    63  61  93 NW3       30.08R FOG
GRINNELL*      LGT RAIN  59  57  94 SE5       30.08R
KNOXVILLE *    CLOUDY    59  57  94 S8        30.08R
MARSHALLTOWN   CLOUDY    61  60  97 NE9       30.05F FOG
PELLA *        CLOUDY    59  59 100 S7        30.09R FOG
PERRY *        CLOUDY    59  57  94 E3        30.07S FOG
$$

IAZ004>006-015-016-023>025-035-036-051000-
   NORTH CENTRAL IOWA

CITY           SKY/WX    TMP DP  RH WIND       PRES   REMARKS
ALGONA *       CLOUDY    57  41  54 NE7       30.11S
CLARION *      CLOUDY    57  46  67 E12       30.09F
ESTHERVILLE    CLOUDY    55  35  47 NE10      30.12S
FORT DODGE *   CLOUDY    54  48  82 E6        30.10S
MASON CITY     CLOUDY    57  45  64 NE7       30.12S
FOREST CITY *  CLOUDY    57  37  47 E6        30.11F
IOWA FALLS *   RAIN      57  54  88 NE6       30.09F
$$

IAZ007>011-017>019-026>030-037>042-050>054-066-051000-
   NORTHEAST IOWA

CITY           SKY/WX    TMP DP  RH WIND       PRES   REMARKS
CEDAR RAPIDS   CLOUDY    61  61 100 S7        30.08R
CHARLES CITY * CLOUDY    57  46  67 NE9       30.11S
CLINTON *      CLOUDY    57  55  94 SE14      30.15R
DECORAH *      CLOUDY    57  54  88 E14       30.11F
DUBUQUE        LGT RAIN  54  52  93 E13       30.13F FOG
MONTICELLO *   CLOUDY    59  59 100 SE10G22   30.09S
OELWEIN *      CLOUDY    61  61 100 E12       30.09F FOG
WATERLOO       CLOUDY    60  59  96 E6        30.08R FOG
$$

IAZ064-065-067-068-078-051000-
   EAST CENTRAL IOWA

CITY           SKY/WX    TMP DP  RH WIND       PRES   REMARKS
DAVENPORT      LGT RAIN  60  58  92 SE13      30.14R FOG
IOWA CITY      LGT RAIN  62  62 100 SE13      30.10R
MT. PLEASANT * CLOUDY    61  61 100 E8        30.07F
MUSCATINE *    CLOUDY    64  63  94 SE8G14    30.10S
QUAD CITIES    HVY RAIN  60  58  92 E7        30.12R FOG
$$

IAZ062-063-075>077-085>089-095>099-051000-
   SOUTHEAST IOWA

CITY           SKY/WX    TMP DP  RH WIND       PRES   REMARKS
BURLINGTON     LGT RAIN  62  62 100 NE9       30.07F
FAIRFIELD *    CLOUDY    63  63 100 SE6       30.08F FOG
FORT MADISON * DRIZZLE   61  61 100 E3        30.09F
KEOKUK *       CLOUDY    61  61 100 CALM      30.08R
OSKALOOSA *      N/A     59  59 100 S7        30.09R
CENTERVILLE *  CLEAR     59  59 100 CALM      30.12R
OTTUMWA        CLOUDY    60  60 100 S6        30.09R FOG
WASHINGTON *   MOCLDY    64  64 100 SE10G17   30.07F FOG
$$

ABBREVIATIONS USED IN REMARKS
   TC - TEMPERATURES IN CELSIUS
  WCI - WIND CHILL INDEX
   HX - HEAT INDEX
  VSB - VISIBILITY
$$



USA.gov is the U.S. government's official web portal to all federal, state and local government web resources and services.